Location: Caltech
(34.1382°N, 118.1253°W)
Time: 08:10:02
(UTC-07:00)

Iridium 95 - Visible Passes

Search period start: 30 October 2014 00:00
Search period end: 08 November 2014 23:00
Orbit: 776 x 779 km, 86.4° (Epoch: 29 October)

Date Brightness Start Highest point End Pass type
(mag) Time Alt. Az. Time Alt. Az. Time Alt. Az.
31 Oct 7.5 19:11:32 10° SE 19:11:55 12° SE 19:11:55 12° SE visible
31 Oct 7.8 20:51:14 10° SSW 20:52:31 17° SW 20:52:31 17° SW visible
01 Nov 6.0 20:17:08 10° S 20:21:20 54° SW 20:21:20 54° SW visible
02 Nov 5.4 18:43:40 10° S 18:48:47 64° E 18:53:56 10° N visible
02 Nov 8.5 20:28:14 10° W 20:29:55 11° WNW 20:31:36 10° WNW visible
03 Nov 8.5 05:19:30 10° NE 05:22:11 14° ENE 05:24:52 10° ESE visible
03 Nov 6.1 18:10:49 10° SSE 18:15:24 33° E 18:20:00 10° NNE visible
03 Nov 7.7 19:52:04 10° SW 19:56:06 23° W 20:00:09 10° NNW visible
04 Nov 6.9 17:38:51 10° ESE 17:42:07 17° E 17:45:24 10° NE visible
04 Nov 6.6 19:17:29 10° SSW 19:22:24 43° W 19:27:21 10° NNW visible
05 Nov 5.5 18:43:38 10° S 18:48:50 85° W 18:54:03 10° N visible
06 Nov 8.2 05:18:32 10° NNE 05:22:26 21° E 05:26:18 10° SE visible
06 Nov 5.7 18:10:24 10° SSE 18:15:22 49° E 18:20:22 10° NNE visible
06 Nov 8.2 19:53:21 10° WSW 19:56:20 15° WNW 19:59:19 10° NW visible
07 Nov 8.8 04:47:38 10° ENE 04:48:35 10° ENE 04:49:32 10° E visible
07 Nov 6.5 17:37:51 10° SE 17:42:02 25° E 17:46:13 10° NNE visible
07 Nov 7.3 19:18:05 10° SW 19:22:33 29° W 19:27:04 10° NNW visible
08 Nov 6.2 05:51:06 10° N 05:56:15 61° E 06:01:23 10° SSE visible
08 Nov 6.1 18:43:49 10° SSW 18:48:54 57° W 18:54:02 10° N visible
